Track COSMOS 2475 (GLONASS) now! COSMOS 2475 (GLONASS) is classified as:
1 37869U 11064C 23149.82025897 .00000053 00000-0 00000+0 0 9992 2 37869 64.7550 110.7262 0025493 257.3398 140.8201 2.13102003 90031